Location: Cahas Mountain Overlook
(37.0833°N, 80.1000°W)
Time: 03:43:55
(UTC-05:00)

Transit 2A Rocket - Visible Passes

Search period start: 05 December 2023 00:00
Search period end: 15 December 2023 00:00
Orbit: 593 x 903 km, 66.7° (Epoch: 05 December)

Date Brightness Start Highest point End Pass type
(mag) Time Alt. Az. Time Alt. Az. Time Alt. Az.
05 Dec 7.0 05:24:12 10° N 05:27:11 18° NE 05:30:16 10° E visible
06 Dec 4.6 06:21:48 10° NNW 06:26:13 89° E 06:30:54 10° SSE visible
07 Dec 5.6 05:39:20 16° N 05:42:33 44° ENE 05:47:00 10° SE visible
08 Dec 6.5 04:57:21 20° NNE 04:58:46 24° NE 05:02:30 10° ESE visible
08 Dec 5.5 06:37:16 10° NW 06:41:12 31° WSW 06:45:21 10° S visible
09 Dec 7.4 04:15:25 13° ENE 04:15:25 13° ENE 04:17:07 10° E visible
09 Dec 4.6 05:55:17 26° NW 05:57:39 64° WSW 06:02:19 10° SSE visible
10 Dec 4.9 05:13:26 57° NNE 05:14:02 64° ENE 05:18:42 10° SE visible
10 Dec 6.7 19:41:26 10° SSW 19:43:08 22° SSW 19:43:08 22° SSW visible
11 Dec 6.5 04:31:38 27° E 04:31:38 27° E 04:34:31 10° ESE visible
11 Dec 5.9 06:11:30 20° W 06:12:34 22° WSW 06:16:13 10° SSW visible
11 Dec 5.6 18:58:10 10° S 19:01:26 33° SSE 19:01:26 33° SSE visible
12 Dec 5.2 05:29:45 41° SW 05:29:45 41° SW 05:33:35 10° S visible
12 Dec 6.0 18:15:40 10° SSE 18:19:10 20° ESE 18:19:41 20° E visible
12 Dec 6.7 19:57:01 10° SW 19:59:33 26° WSW 19:59:33 26° WSW visible
13 Dec 6.4 04:48:03 27° SSE 04:48:03 27° SSE 04:50:15 10° SSE visible
13 Dec 4.7 19:12:55 10° SSW 19:17:41 72° WNW 19:17:45 71° NW visible
14 Dec 6.9 05:46:15 12° SW 05:46:15 12° SW 05:46:46 10° SW visible
14 Dec 4.7 18:29:23 10° SSW 18:34:04 57° ESE 18:35:53 33° NE visible
14 Dec 7.4 20:14:09 10° W 20:15:45 14° WNW 20:15:45 14° WNW visible
